{"data":{"norad_id":66080,"epoch":"2026-05-24T23:43:17.518944Z","epoch_age_seconds":79144,"freshness":"FRESH","line1":"1 66080U 25235Y   26144.98839721  .00019847  00000+0  68039-3 0  9998","line2":"2 66080  53.1589 250.8336 0001075  85.4197 274.6926 15.30201861 34603","mean_motion":15.30201861,"eccentricity":0.0001075,"inclination_deg":53.1589,"raan_deg":250.8336,"arg_perigee_deg":85.4197,"mean_anomaly_deg":274.6926,"bstar":0.00068039,"rev_number":3460,"period_min":94.10523125746,"perigee_km":474.47277806428,"apogee_km":475.94624756453,"semimajor_km":6853.3465128144,"source":"CELESTRAK","updated_at":"2026-05-25T13:38:21.025145Z"}}